{"data":{"norad_id":65082,"intl_designator":"2025-167E","name":"STARLINK-34626","alt_names":[],"object_type":"PAYLOAD","status":"ACTIVE","operator":null,"country":"US","launch_date":"2025-08-04","launch_site_code":"AFETR","launch_vehicle":null,"mission":null,"orbit_class":"UNKNOWN","rcs_meters":null,"size_class":null,"mass_kg":null,"dimensions":null,"purposes":["comms"],"wikipedia_slug":null,"has_3d_model":false,"image_url":null,"decayed_at":null,"tle_current":{"epoch":"2026-05-25T01:25:36.965568Z","epoch_age_seconds":66589,"freshness":"FRESH","line1":"1 65082U 25167E   26145.05945562  .00027458  00000+0  63755-3 0  9990","line2":"2 65082  53.1593  29.0841 0001028  81.1143 278.9979 15.42189203 45210","mean_motion":15.42189203,"eccentricity":0.0001028,"inclination_deg":53.1593,"raan_deg":29.0841,"arg_perigee_deg":81.1143,"mean_anomaly_deg":278.9979,"bstar":0.00063755,"rev_number":4521,"period_min":93.373757072011,"perigee_km":438.94871582985,"apogee_km":440.35045275158,"semimajor_km":6817.7865842907,"source":"CELESTRAK","updated_at":"2026-05-25T13:38:20.683016Z"}}}